Voltar ao catálogo

COSMOS 2382

GLONASS

LostNavegaçãoMEO
NORAD 26987·PAYLOAD·🇷🇺 Russia

Lançado Dec 1, 2001 de Baikonur Cosmodrome

Loading…

Próximas Passagens (próximas 24 horas)

TLE

ObsoletoSource: Space-Track

Época: Aug 6, 2026, 09:50 UTC

1 26987U 01053A   26218.41016875 -.00000002  00000-0  00000+0 0  9994
2 26987  64.1209  55.6663 0003498 196.1489 344.4848  2.13104799192024

Acompanhe COSMOS 2382 em tempo real com AllMySat

Download on the App Store